Tracking 35237 objects as of 5-Sep-2026
HD Live streaming from Space Station
objects crossing your sky now

FLOCK 4X 1


FLOCK 4X 1 is no longer on orbit


NORAD ID: 51017
Int'l Code: 2022-002AK
Launch date: January 13, 2022
Source: United States (US)
Launch site: AIR FORCE EASTERN TEST RANGE (AFETR)
Decay date: 2024-11-06
Your satellite tracking list
Your tracking list is empty




NASA's NSSDC Master Catalog

Two Line Element Set (TLE):
1 51017U 22002AK  24306.64252817  .18066373  25693-5  28014-3 0  9992
2 51017  97.3306  28.3725 0010178 261.0422  98.9730 16.47973319156485
Source of the keplerian elements: AFSPC